Starlink 32831

operational
NORAD ID: 62860 Int'l Des: 2025-022 Owner: SPXS Country: US Constellation: starlink
LEOCIRCULAR

About Starlink 32831

Description loading...

Live Position

Loading 3D Globe...

Upcoming Passes

Altitude History

Altitude vs Time

uPlot chart will show altitude changes over time

Two-Line Element Set

1 62860U 25022G 25259.31785556 .00030349 00000-0 10323-2 0 9996
2 62860 53.1568 219.5111 0001026 87.2318 272.8800 15.30208395 35191
Epoch: Sep 16, 2025 • Age: 18 hours

Current Status

Altitude 479.0 km
Velocity 7.63 km/s
Sub-Earth Point 44.53°N, 28.13°W
Launch Date Feb 2, 2025
Age 0.6 years
Type internet

Technical Details

Classification Payload
Mass 730.00 kg
Dry Mass 700.00 kg
Total Mass 730.00 kg
Length 0.30 m
Diameter 4.10 m
Span 29.00 m
Shape Box + pan
Manufacturer SPXS
Bus Type Starlink V2M
Phase Status In Orbit
Owner/State SPXS/US

Large Constellations

Loading constellations...